Flag for Qatar Weather past 2 weeks in Al-Jamiliyah, Qatar

Now
102 °F

Clear.


Feels Like: 115 °F
Forecast: 86 / 107 °F
Wind: 6 mph from Southwest

Location: Al Udeid

Current Time: Aug 5, 2015 at 9:31:12 AM

Latest Report: Aug 5, 2015 at 8:58 AM


Visibility: 6 mi

Pressure: 29.57 "Hg

Humidity: 42%

Dew point: 74 °F

Historic Weather in Al-Jamiliyah — Graph

°F

Al-Jamiliyah temperature yesterday

Maximum temperature yesterday: 109 °F (at 1:58 PM)
Minimum temperature yesterday: 89 °F (at 4:58 AM)
Average temperature yesterday: 98 °F

Past Weeks' High & Low Weather Summary

 TemperatureHumidityPressure
High116 °F (Jul 30, 1:58 PM)87% (Jul 26, 4:58 AM)29.59 "Hg (Jul 26, 4:58 AM)
Low85 °F (Jul 25, 4:58 AM)5% (Jul 21, 1:58 PM)29.37 "Hg (Jul 26, 4:58 PM)
Average99 °F46%29.48 "Hg
* Reported Jul 21 7:58 AM — Aug 5 7:58 AM, Al-Jamiliyah, Weather by CustomWeather, © 2015

Note: Actual official high and low records may vary slightly from our data, if they occured in-between our weather recording intervals... More about our weather records

Advertising

Al-Jamiliyah weather history for previous 24 hours

 ConditionsComfort  
Time TempWeatherWind HumidityBarometerVisibility
7:58 AM
Wed, Aug 5
95 °FClear.6 mph63%29.57 "Hg6 mi
6:58 AM91 °FFog.3 mph76%29.57 "Hg6 mi
5:58 AM91 °FClear.6 mph76%29.56 "HgN/A
4:58 AM89 °FFog.7 mph77%29.55 "Hg5 mi
3:58 AM89 °FFog.7 mph75%29.54 "Hg6 mi
2:58 AM90 °FClear.5 mph74%29.53 "HgN/A
1:58 AM91 °FSunny.5 mph72%29.52 "HgN/A
12:58 AM92 °FSunny.6 mph67%29.52 "HgN/A
11:58 PM
Tue, Aug 4
94 °FSunny.7 mph58%29.54 "HgN/A
10:58 PM95 °FSunny.8 mph54%29.55 "Hg6 mi
9:58 PM97 °FSunny.6 mph46%29.56 "Hg6 mi
8:58 PM97 °FSunny.9 mph52%29.56 "Hg6 mi
7:58 PM99 °FSunny.9 mph47%29.55 "Hg6 mi
6:58 PM99 °FSunny.12 mph50%29.52 "Hg6 mi
5:58 PM102 °FSunny.13 mph40%29.51 "Hg6 mi
4:58 PM105 °FSunny.13 mph38%29.51 "HgN/A
3:58 PM104 °FSunny.12 mph47%29.51 "HgN/A
2:58 PM106 °FSunny.13 mph44%29.52 "HgN/A
1:58 PM109 °FSunny.15 mph34%29.52 "HgN/A
12:58 PM109 °FClear.5 mph26%29.54 "HgN/A
11:58 AM107 °FClear.5 mph33%29.56 "HgN/A
10:58 AM104 °FClear.2 mph40%29.57 "HgN/A
9:58 AM103 °FClear.8 mph47%29.58 "Hg6 mi
Weather by CustomWeather, © 2015

See weather overviewHow to use our weather pages